Location: Kott?ru
(16.6209°N, 80.6208°E)
Time: 12:23:14
(UTC+00:00)

Max Valier Satellite - Pass Details

Date: 12 June 2023
Orbit: 426 x 438 km, 97.1° (Epoch: 01 October)

Event Time Altitude Azimuth Distance (km) Brightness Sun altitude
Exits shadow 14:42:25 18° 204° (SSW) 1,215 ? -20.2°
Maximum altitude 14:44:30 34° 260° (W) 783 ? -20.6°
Drops below altitude 10° 14:47:39 10° 327° (NNW) 1,599 ? -21.2°
Sets 14:49:47 0° 337° (NNW) 2,462 ? -21.6°
